Regional Weather Roundup
Issued by NWS Albany, NY

Home | Current Version | Previous Version | Text Only | Print | Product List | Glossary On
Versions: 1 2 3 4 5 6 7 8 9 10 11 12 13 14 15 16 17 18 19 20 21 22 23 24 25 26 27 28
000
ASUS41 KALY 261110
RWRALY

NEW YORK STATE HOURLY WEATHER ROUNDUP
NATIONAL WEATHER SERVICE ALBANY NY
700 AM EDT THU MAY 26 2016

NOTE: "FAIR" INDICATES FEW OR NO CLOUDS BELOW 12,000 FEET WITH NO
SIGNIFICANT WEATHER AND/OR NO OBSTRUCTIONS TO VISIBILITY.

NYZ032-033-038>043-046>054-057>066-NYZ062>081-082-084-261200-
EAST


CITY           SKY/WX    TMP DP  RH WIND       PRES   REMARKS
ALBANY         PTSUNNY   62  56  80 CALM      30.13R
GLENS FALLS    MOSUNNY   60  55  83 CALM      30.13R
POUGHKEEPSIE   SUNNY     60  56  86 CALM      30.10R
MONTGOMERY     SUNNY     58  56  93 CALM      30.11R
WHITE PLAINS   SUNNY     65  57  75 CALM      30.11R
ISLIP          CLOUDY    64  58  80 CALM      30.10R
NEW YORK CITY  PTSUNNY   74  56  53 CALM      30.09R
CENTRAL PARK   SUNNY     71  51  49 W3        30.13R
$$

NYZ005>009-017-018-044>046-055-056-261200-
CENTRAL


CITY           SKY/WX    TMP DP  RH WIND       PRES   REMARKS
FULTON         SUNNY     59  55  87 CALM      30.08R
SYRACUSE       CLOUDY    60  56  86 E5        30.08R
ROME           CLOUDY    58  56  93 SE5       30.11R
ELMIRA         CLOUDY    58  54  86 CALM      30.12R FOG
BINGHAMTON     MOSUNNY   58  53  84 CALM      30.14S
MONTICELLO     CLOUDY    57  54  88 CALM      30.17R
$$

NYZ026>034-041>043-087-261200-
NORTH


CITY           SKY/WX    TMP DP  RH WIND       PRES   REMARKS
WATERTOWN      MOSUNNY   58  54  86 E5        30.08S
FORT DRUM      NOT AVBL
MASSENA        MOSUNNY   59  50  72 E9        30.13R
SARANAC LAKE   PTSUNNY   55  49  80 CALM      30.13R
PLATTSBURGH    CLOUDY    60  50  69 N7        30.14R
$$

NYZ001>004-010>016-019>021-085-261200-
WEST


CITY           SKY/WX    TMP DP  RH WIND       PRES   REMARKS
NIAGARA FALLS  CLOUDY    64  54  69 CALM      30.05R
BUFFALO        PTSUNNY   66  53  63 SE5       30.06S
DUNKIRK        MOSUNNY   67  58  72 S5        30.05S
JAMESTOWN      PTSUNNY   61  52  72 S7        30.11S
WELLSVILLE     MOSUNNY   60  51  72 CALM      30.16R
ROCHESTER      CLOUDY    63  54  72 SW6       30.08R
PENN YAN       CLOUDY    62  53  72 SW5       30.11R
$$

             KEY
       WCI = WIND CHILL INDEX
       VSB = VISIBILITY
       HX  = HEAT INDEX
$$




USA.gov is the U.S. government's official web portal to all federal, state and local government web resources and services.